Location: Borovka
(49.7741°N, 14.5280°E)
Time: 06:56:04
(UTC+00:00)

Cosmos 371 Rocket - Pass Details

Date: 17 November 2025
Orbit: 674 x 690 km, 74.0° (Epoch: 12 December)

Event Time Altitude Azimuth Distance (km) Brightness Sun altitude
Rises 18:06:24 0° 210° (SSW) 3,032 6.9 -27.3°
Reaches altitude 10° 18:08:42 10° 212° (SSW) 2,124 6.1 -27.6°
Enters shadow 18:12:52 60° 253° (WSW) 784 3.7 -28.3°
